McMurdo%20Station (Antarctica)  www.meteorete.it

situazione meteo Attuale :01:20:19
Temperatura : -17.6
Umidita :75.7 %
Pressione :978.9 hPa
Vel vento :5.0 Km
Direz. :E
Precip.(mm.):0.4
   

Condizioni Meteo per: McMurdo Station, Antarctica

aggiornamento precedente: 19.10.2017 07:39
prossimo aggiornamento: 19.10.2017 20:00
Latitude: 77.85° S
Longitude: 166.68° E
Altitude: -6 m

hPa
mm °C
    Temperatura Precipitazioni Pressione vento Umidità Nuvoloso Nebbia
 03:13     00:03 OGGI
03:00 0.4 mm 978.9 hPa 5.0 m/s 76% 99%
05:00 0.5 mm 979.9 hPa 6.0 m/s 71% 99%
07:00 0.8 mm 981.4 hPa 6.3 m/s 73% 100%
09:00 0.8 mm 982.7 hPa 6.0 m/s 73% 100%
11:00 0.6 mm 983.9 hPa 4.9 m/s 72% 99%
13:00 0.5 mm 984.9 hPa 5.1 m/s 72% 99%
15:00 0.4 mm 985.7 hPa 6.1 m/s 73% 98%
17:00 0.4 mm 986.8 hPa 6.3 m/s 73% 100%
19:00 0.3 mm 988.1 hPa 6.3 m/s 73% 100%
21:00 0.3 mm 989.5 hPa 6.3 m/s 74% 99%
23:00 0.2 mm 990.5 hPa 5.4 m/s 74% 99%
 02:54     00:21 DOMANI
01:00   992.5 hPa 5.2 m/s 76% 99%
03:00   993.6 hPa 4.7 m/s 78% 93%
05:00   992.8 hPa 5.1 m/s 69% 89%
07:00   991.8 hPa 3.2 m/s 68% 45%
09:00   991.4 hPa 2.1 m/s 68% 48%
11:00   991.6 hPa 3.2 m/s 77% 2%
13:00   992.0 hPa 5.0 m/s 64% 0%
15:00   992.0 hPa 3.3 m/s 46% 57%
17:00   991.3 hPa 4.1 m/s 49% 4%
19:00   990.9 hPa 1.9 m/s 40% 0%
21:00   991.0 hPa 2.6 m/s 56% 14%
23:00   991.1 hPa 2.0 m/s 56% 55%
 02:29     00:46 Domenica 22.10.2017
01:00   991.2 hPa 2.0 m/s 53% 31%
03:00   991.5 hPa 4.8 m/s 51% 9%
05:00   991.6 hPa 2.9 m/s 38% 92%
07:00   991.7 hPa 2.6 m/s 35% 66%
09:00   992.0 hPa 1.4 m/s 29% 5%
11:00   992.4 hPa 2.6 m/s 34% 6%
13:00   992.9 hPa 3.3 m/s 42% 43%
15:00   993.1 hPa 3.0 m/s 39% 62%
17:00   993.1 hPa 2.7 m/s 33% 21%
19:00   992.8 hPa 4.3 m/s 46% 34%
       Lunedi 23.10.2017
07:00   993.6 hPa 4.3 m/s 50% 0%
13:00   995.7 hPa 4.2 m/s 58% 0%
19:00   996.3 hPa 2.1 m/s 48% 2%
       Martedi 24.10.2017
01:00   997.0 hPa 2.3 m/s 38% 2%
07:00   996.6 hPa 2.6 m/s 43% 0%
13:00   996.3 hPa 2.3 m/s 43% 75%
19:00   995.5 hPa 3.3 m/s 44% 94%
       Mercoledi 25.10.2017
01:00   995.3 hPa 3.1 m/s 44% 59%
07:00   995.3 hPa 3.2 m/s 43% 41%
13:00   995.6 hPa 2.9 m/s 41% 84%
19:00   994.7 hPa 3.6 m/s 47% 75%
       Giovedi 26.10.2017
01:00   993.9 hPa 1.3 m/s 34% 55%
07:00   992.7 hPa 2.6 m/s 38% 45%
13:00   991.1 hPa 2.7 m/s 52% 57%
19:00   991.3 hPa 4.0 m/s 54% 57%
       Venerdi 27.10.2017
01:00   991.4 hPa 2.8 m/s 56% 96%
07:00   992.4 hPa 3.4 m/s 61% 98%
13:00   992.7 hPa 1.6 m/s 55% 42%
19:00   992.9 hPa 2.7 m/s 59% 79%
       Sabato 28.10.2017
01:00   992.9 hPa 3.3 m/s 60% 2%
07:00   993.0 hPa 3.4 m/s 58% 96%
13:00   993.6 hPa 3.7 m/s 54% 36%
19:00   994.0 hPa 3.5 m/s 56% 89%
       Domenica 29.10.2017
01:00   994.5 hPa 4.4 m/s 55% 81%
07:00   994.9 hPa 3.5 m/s 56% 85%
13:00   995.0 hPa 3.9 m/s 55% 70%